Regional Weather Roundup
Issued by NWS

Home | Current Version | Previous Version | Graphics & Text | Print | Product List | Glossary On
Versions: 1 2 3 4 5 6 7 8 9 10 11 12 13 14 15 16 17 18 19 20 21 22 23 24 25 26 27 28 29 30 31 32 33 34 35 36 37 38 39 40 41 42 43 44 45 46 47 48 49 50
842
ASUS43 KMKX 300400
RWRWI

WISCONSIN REGIONAL WEATHER ROUNDUP
NATIONAL WEATHER SERVICE MILWAUKEE/SULLIVAN WI
1100 PM CDT MON MAY 29 2017

NOTE: "FAIR" INDICATES FEW OR NO CLOUDS BELOW 12,000 FEET WITH NO
SIGNIFICANT WEATHER AND/OR OBSTRUCTIONS TO VISIBILITY.

WIZ001-002-006>008-014>016-023>028-300500-
NORTHWEST WISCONSIN

CITY           SKY/WX    TMP DP  RH WIND       PRES   REMARKS
SUPERIOR ARPT  NOT AVBL
ASHLAND        CLOUDY    50  45  83 SW6       29.77S
HAYWARD        PTCLDY    49  46  90 S3        29.80S
SIREN          CLOUDY    54  45  73 W8        29.83
CUMBERLAND     CLOUDY    50  45  81 SW6       29.84R
RICE LAKE      MOCLDY    52  46  79 CALM      29.85S
CHETEK         PTCLDY    51  46  84 CALM      29.84S
LADYSMITH      CLOUDY    53  49  86 W6        29.83S
EAU CLAIRE     NOT AVBL
MENOMONIE      PTCLDY    53  46  76 SW3       29.86S
NEW RICHMOND   CLOUDY    54  46  75 W7        29.85S
OSCEOLA        MOCLDY    55  47  76 W12       29.88R
$$

WIZ003>005-009-010-017-018-300500-
NORTH CENTRAL WISCONSIN

CITY           SKY/WX    TMP DP  RH WIND       PRES   REMARKS
MANITOWISH WTR CLOUDY    51  48  91 W8        29.77S
ARBOR VITAE    CLOUDY    53  49  85 W5        29.77R
WOODRUFF       CLOUDY    53  49  85 W5        29.77R
RHINELANDER    CLOUDY    52  50  93 W7        29.78F
EAGLE RIVER    RAIN      51  49  92 W3        29.76S
LAND O LAKES   CLOUDY    50  49  95 CALM      29.77S
PHILLIPS       PTCLDY    50  50 100 CALM      29.79S
TOMAHAWK       CLOUDY    50  48  92 W5        29.80R
MEDFORD        RAIN      51  49  92 W9        29.81R
MERRILL        MOCLDY    53  50  92 W7        29.80S
$$

WIZ029-030-035-036-043>047-300500-
CENTRAL WISCONSIN

CITY           SKY/WX    TMP DP  RH WIND       PRES   REMARKS
WAUSAU         CLOUDY    52  50  93 W7        29.79S
MOSINEE        MOCLDY    50  50 100 SW6       29.82S
MARSHFIELD     CLOUDY    51  49  92 NW6       29.82R
STEVENS POINT  MOCLDY    52  48  84 W6        29.83S
WAUPACA        PTCLDY    55  49  79 SW6       29.82F
WAUTOMA        CLOUDY    53  51  93 SW6       29.85R
WISC RAPIDS    PTCLDY    53  48  83 W7        29.85R
CAMP DOUGLAS   PTCLDY    52  49  90 W8        29.85S
$$

WIZ011>013-019>022-031-037>040-048>050-300500-
NORTHEAST WISCONSIN

CITY           SKY/WX    TMP DP  RH WIND       PRES   REMARKS
ANTIGO         CLOUDY    49  49  99 W7        29.80R
SHAWANO        MOCLDY    54  49  85 CALM      29.80S
OCONTO         CLOUDY    53  51  93 SW6       29.79R
STURGEON BAY   LGT RAIN  55  51  86 W8        29.79R
GREEN BAY      MOCLDY    57  50  77 W7        29.80S
MANITOWOC      NOT AVBL
APPLETON       MOCLDY    55  45  67 SW8       29.81S
CLINTONVILLE   CLOUDY    54  46  76 W6        29.81S
OSHKOSH        PTCLDY    55  47  74 SW5       29.82F
$$

WIZ032>034-041-042-053>061-300500-
SOUTHWEST WISCONSIN

CITY           SKY/WX    TMP DP  RH WIND       PRES   REMARKS
LA CROSSE      CLEAR     57  50  77 W9        29.87S
SPARTA         PTCLDY    53  50  89 SW3       29.87S
VIROQUA        PTCLDY    54  48  82 SW9       29.89R
BOSCOBEL       MOCLDY    58  46  64 SW6       29.90R
PRAIRIE DU CHI CLEAR     58  45  61 W6        29.91R
PLATTEVILLE    CLEAR     57  47  68 NW6       29.91S
$$

WIZ056-057-062-063-064-067-068-300500-
SOUTH CENTRAL WISCONSIN

CITY           SKY/WX    TMP DP  RH WIND       PRES   REMARKS
REEDSBURG      MOCLDY    55  50  83 SW7       29.87S
BARABOO/DELLS  MOCLDY    53  49  86 CALM      29.87S
LONE ROCK      NOT AVBL
MINERAL POINT  CLEAR     57  45  62 W8        29.90S
MADISON        CLEAR     55  51  86 CALM      29.87S
MIDDLETON      CLEAR     53  50  90 W6        29.88S
WATERTOWN      MOCLDY    53  53 100 SW3       29.87R
MONROE         CLEAR     59  45  58 W13G18    29.90R
JANESVILLE     CLEAR     59  46  63 S3        29.88S
$$

WIZ051-052-058>065-066-070>072-300500-
SOUTHEAST WISCONSIN

CITY           SKY/WX    TMP DP  RH WIND       PRES   REMARKS
MILWAUKEE      MOCLDY    57  51  80 W5        29.87R
WAUKESHA       MOCLDY    52  46  82 W6        29.88
MILWAUKEE/TIMM   N/A     52  46  82 SW5       29.87S
RACINE         CLEAR     56  47  71 SW3       29.88F
KENOSHA        PTCLDY    58  46  64 SW8       29.88S
FOND DU LAC    CLEAR     54  47  77 SW7       29.84S
SHEBOYGAN      CLEAR     54  49  83 SW9       29.83S
WEST BEND      CLEAR     54  46  76 SW6       29.85F
JUNEAU         PTCLDY    52  49  88 SW3       29.87S
$$

LSZ147-162-300500-
LAKE SUPERIOR

STATION/POSITION TIME  TEMP    WIND        PRES    WAVE
                       AIR SEA DIR/SP/G            HT/PER
                 (UTC) (F)     (DEG/KT/KT) (MB)    (FT/S)
W MID LAKE BUOY  0250   44 37  270/ 16/ 17 1005.7R   2/ 4
DEVILS ISLAND    0300   49     260/ 16/ 18 1007.1R
SAXON HARBOR     0340   54     210/  4/  5 1007.8S
$$

LMZ867-665-643>646-300500-
LAKE MICHIGAN

STATION/POSITION TIME  TEMP    WIND        PRES    WAVE
                       AIR SEA DIR/SP/G            HT/PER
                 (UTC) (F)     (DEG/KT/KT) (MB)    (FT/S)
CHAMBERS ISLAND  0340   56     220/  8/ 13 1007.1S
N MID LAKE BUOY  0150   47 41  230/ 12/ 14 1007.6R   2/ 4
NORTHPORT PIER   0340   57     270/  6/ 11 1007.1S
KEWAUNEE LAKESHO 0330   58     240/  7/ 10 1008.5S
SHEBOYGAN LAKESH 0300   59     240/ 12/ 14 1009.7R
PORT WASHINGTON  0340   59     250/  5/  6 1011.9R
ATWATER BUOY     0209   60     220/ 16/ 23 1011.1R
MILWAUKEE LAKESH 0330   60     280/  6/  8   N/A
S MID LAKE BUOY  0250   52 48  240/  4/  4 1011.6R   1/ 4
KENOSHA   LAKESH 0300   61     320/  7/ 15 1011.5
$$

TC  - TEMPERATURE IN CELSIUS
VSB - VISIBILITY IN STATUTE MILES
WCI - WIND CHILL INDEX
HX  - HEAT INDEX





USA.gov is the U.S. government's official web portal to all federal, state and local government web resources and services.